Location: Pilipovskiye Korichintsy
(49.1833°N, 27.4667°E)
Time: 12:14:36
(UTC+00:00)

Cosmos 2082 Rocket - Pass Details

Date: 14 July 2020
Orbit: 833 x 853 km, 71.0° (Epoch: 07 August)

Event Time Altitude Azimuth Distance (km) Brightness Sun altitude
Exits shadow 00:40:49 15° 194° (SSW) 2,162 3.7 -12.2°
Maximum altitude 00:45:37 69° 114° (ESE) 914 2.4 -11.8°
Drops below altitude 10° 00:51:18 10° 32° (NNE) 2,489 6.2 -11.2°
Sets 00:53:46 0° 31° (NNE) 3,426 7.5 -11.0°
